Погода Агзу

Погода Агзу : погода сейчас, прогноз погоды и архив. Всё, что Вы хотите узнать о погоде Агзу!

Хотите узнать прогноз погоды Агзу? Тогда Вам сюда: Погода Агзу

Поиск расширенной информации на нашем сайте:

Другие новости

Новости СМИ2

Главная страница сайта

Новости сайта

03.07.2017

Напоминаем, что на нашем специализированном сайте Метеоцентр.Азия вы можете получить высокодетализированные автоматические прогнозы погоды по пунктам России, СНГ и мира в авиационном формате (включающие направление и скорость ветра, видимость, явления погоды, количество и форму облачности, нижнюю и верхнюю границу облачности).


Погода Агзу - сегодня

Время (UTC), дата Ветер
(°,м/с) 
Видим.   Явления Облачность Т
(°С)
Тd
(°С)
f(%) Тe
(°С)
Pmin
(гПа)
dP
(гПа)
Po
(мм)
O2
(г/м3)
Тmin Tmax R s Состояние
почвы
00 21.09.17 тихо ()   н/о    н/о 
+14.6 +9.6 72 +15  1008  741  282  +3.1         
03 21.09.17 250 (З) 20000 м    5/5 1000 м 
[Cu hum]
+22.1 +8.6 42 +22  1006.5  -1  740  275           
06 21.09.17 280 (З) н/о    н/о 
+24 +4.9 29 +24  1006  -0.4  740  273           
09 21.09.17 тихо ()   20000 м    3/0 верхняя 
[Ci fib]
+14.6 +10.5 76 +17  1008.2  1.6  741  282    +24.3       
12 21.09.17 тихо ()   н/о    н/о 
+8.9 +8.2 95 +9  1011.7  1.6  744  289           
15 21.09.17 тихо ()   20000 м    ясно 
+5.8 +5.4 97 +6  1013.8  1.8  745  293           
18 21.09.17 тихо ()   н/о    н/о 
+3.8 +3.6 99 +4  1015.5  1.6  746  296           
21 21.09.17 тихо ()   20000 м    10/3 600 м верхняя 
[St|Cc]
+2.2 +2.2 100 +2  1017.2  1.5  747  298  +1.5        влажная 
00 22.09.17 190 (Ю) н/о    н/о 
+11.4 +7.3 76 +13  1017.3  0.8  748  288           
03 22.09.17 260 (З) 20000 м    1/0 верхняя 
[Ci fib]
+20.7 +7.4 42 +21  1014.2  -2.4  746  278           
06 22.09.17 170 (Ю) н/о    н/о 
+24.1 +5.2 29 +24  1012.4  -1.6  745  275           
09 22.09.17 060 (СВ) 20000 м    ясно 
+16.2 +8.4 60 +18  1014.3  1.4  746  282    +24.7       
12 22.09.17 060 (СВ) н/о    н/о 
+9.9 +7.8 87 +11  1016.1  1.4  747  289           
15 22.09.17 тихо ()   20000 м    ясно 
+5.1 +4.7 97 +5  1016.7  0.3  747  295           
18 22.09.17 тихо ()   н/о    н/о 
+2.7 +2.5 99 +3  1016.8  -0.1  747  298           
21 22.09.17 тихо ()   20000 м    10/10 100 м 
[St]
+4.2 +4.1 99 +4  1016.9  0.2  747  296  +1.7        влажная 
00 23.09.17 200 (Ю) н/о    н/о 
+8.1 +6.5 90 +9  1016.3  -0.3  747  291           
03 23.09.17 150 (ЮВ) 20000 м    10/3 1000 м средняя, верхняя 
[Cu hum|Ac As|Cs]
+18.5 +10.3 59 +21  1012.8  -2.7  745  279           
06 23.09.17 170 (Ю) н/о    н/о 
+19.6 +11.6 60 +24  1010.9  -1.8  744  277           
09 23.09.17 050 (СВ) 20000 м    10/4 600 м средняя, верхняя 
[Sc|Ac lent|Cc]
+14.6 +10.9 78 +19  1011.8  0.5  744  283    +19.8       
12 23.09.17 290 (З) н/о    н/о 
+12.6 +11 90 +17  1012.8  0.8  745  285           
15 23.09.17 тихо ()   20000 м    8/5 600 м средняя, верхняя 
[Sc|Ac trans|Cs]
+10.4 +9.9 97 +12  1013.3  0.4  745  287           
18 23.09.17 тихо ()   н/о    н/о 
+8.1 +7.8 98 +8  1014  0.5  745  290           
21 23.09.17 тихо ()   20000 м    10/10 100 м 
[St]
+8.4 +8 97 +8  1015.1  1.1  746  290  +8.1    0.3    влажная 
00 24.09.17 тихо ()   н/о    н/о 
+12.5 +9.2 80 +13  1015.3  0.4  746  286           
Время (UTC), дата Ветер
(°,м/с) 
Видим.   Явления Облачность Т
(°С)
Тd
(°С)
f(%) Тe
(°С)
Pmin
(гПа)
dP
(гПа)
Po
(мм)
O2
(г/м3)
Тmin Tmax R s Состояние
почвы

Для получения пояснительной информации подведите курсор к названию столбца.

ПОГОДА Агзу - архив

Всё, что Вы хотите узнать о погоде Агзу - удобно и подробно!

Выберите нужную дату (начиная с 1 января 2015* года) и нажмите кнопку "Найти".
Будут отображены архивные сводки погоды по пункту Агзу, начиная с указанной даты.


Отображать данные в формате CSV (для использования в таблицах Excel)


Внимание! Наш архив погоды предназначен исключительно для личного некоммерческого использования в познавательных целях. Если Вам необходимы официальные справки о состоянии погоды (для производственных, юридических, коммерческих и т.п. целей), обращайтесь в органы Росгидромета.

*Примечание: данная дата относится к архиву по метеостанциям СССР (Россия, СНГ, Балтия).
Архив по метеостанциям Зарубежной Европы и Азии (кроме Китая) хранится 10 дней, по другим регионам земного шара (Китай, Африка, Америка, Австралия, Океания) - 1 день.

Агзу - район местоположения метеостанции


Название, широта, долгота, высота метеостанции:
Агзу 47.6°ш. 138.4°д. 165 м над ур. моря [Российская Федерация]

Дополнительная информация

В oтличие oт бoльшинства пoгoдных сайтoв мы публикуем пoдрoбную метеoинфoрмацию в детальнoм прoфессиoнальнoм фoрмате.

Характеристики температуры и влажнoсти вoздуха измеряются на высoте 2 м в тени вдали oт зданий и деревьев.
Скoрoсть ветра измеряется на высoте 10 м (на урoвне рoста челoвека скoрoсть ветра ниже в 1.5-2 раза). Если метеoстанция нахoдится в гoрoде или в лесу, тo скoрoсть ветра занижена на 2-4 м/с пo сравнению с oткрытым местoм. Скoрoсть ветра над акватoриями крупных рек и oзёр, а также на вершинах хoлмoв на 2-5 м/с выше, чем в oбычных услoвиях.
Атмoсфернoе давление в разных тoчках местнoсти мoжет значительнo oтличаться oт давления на метеoстанции, в зависимoсти oт услoвий рельефа (при пoдъёме на 10 м давление пoнижается примернo на 1 мм рт.ст.).